Location: Burgberg
(50.1428°N, 11.0671°E)
Time: 01:52:51
(UTC+00:00)

Lacrosse 5 - Pass Details

Date: 26 January 2020
Orbit: 717 x 722 km, 57.0° (Epoch: 06 February)

Event Time Altitude Azimuth Distance (km) Brightness Sun altitude
Exits shadow 05:11:46 11° 224° (SW) 2,118 4.0 -16.9°
Maximum altitude 05:16:35 70° 142° (SE) 766 2.1 -16.2°
Drops below altitude 10° 05:21:38 10° 59° (ENE) 2,208 5.1 -15.4°
Sets 05:24:02 0° 58° (ENE) 3,130 5.9 -15.0°
